Location: Bouillancy
(49.1149°N, 2.9308°E)
Time: 08:29:44
(UTC+00:00)

MOS 1 - Pass Details

Date: 30 September 2020
Orbit: 878 x 891 km, 99.1° (Epoch: 29 October)

Event Time Altitude Azimuth Distance (km) Brightness Sun altitude
Exits shadow 19:03:20 18° 140° (SE) 2,044 5.7 -16.3°
Maximum altitude 19:07:30 56° 68° (ENE) 1,058 4.4 -16.9°
Drops below altitude 10° 19:13:04 10° 352° (N) 2,570 7.0 -17.8°
Sets 19:15:31 0° 348° (NNW) 3,512 7.8 -18.2°
